Time,TemperatureF,DewpointF,PressureIn,WindDirection,WindDirectionDegrees,WindSpeedMPH,WindSpeedGustMPH,Humidity,HourlyPrecipIn,Conditions,Clouds,dailyrainin,SoftwareType,DateUTC
2013-03-27 00:02:00,30.0,23.0,30.37,WNW,286,0.0,0.0,74,0.00,,,0.00,,2013-03-27 05:02:00,
2013-03-27 00:12:00,30.0,23.0,30.37,WNW,286,0.0,0.0,74,0.00,,,0.00,,2013-03-27 05:12:00,
2013-03-27 00:23:00,29.0,22.0,30.38,WNW,286,1.0,3.0,75,0.00,,,0.00,,2013-03-27 05:23:00,
2013-03-27 00:32:00,29.0,22.0,30.38,WNW,286,2.0,2.0,75,0.00,,,0.00,,2013-03-27 05:32:00,
2013-03-27 00:42:00,29.0,22.0,30.38,WNW,286,2.0,2.0,75,0.00,,,0.00,,2013-03-27 05:42:00,
2013-03-27 00:52:00,29.0,22.0,30.38,WNW,286,0.0,1.0,76,0.00,,,0.00,,2013-03-27 05:52:00,
2013-03-27 01:02:00,29.0,23.0,30.38,WNW,286,1.0,1.0,77,0.00,,,0.00,,2013-03-27 06:02:00,
2013-03-27 01:12:00,29.0,23.0,30.38,WNW,286,1.0,1.0,77,0.00,,,0.00,,2013-03-27 06:12:00,
2013-03-27 01:22:00,29.0,23.0,30.39,WNW,286,0.0,0.0,78,0.00,,,0.00,,2013-03-27 06:22:00,
2013-03-27 01:32:00,29.0,23.0,30.38,WNW,286,1.0,1.0,78,0.00,,,0.00,,2013-03-27 06:32:00,
2013-03-27 01:42:00,29.0,23.0,30.38,WNW,286,1.0,1.0,78,0.00,,,0.00,,2013-03-27 06:42:00,
2013-03-27 01:53:00,29.0,23.0,30.39,WNW,286,2.0,2.0,78,0.00,,,0.00,,2013-03-27 06:53:00,
2013-03-27 02:02:00,29.0,23.0,30.38,WNW,286,1.0,2.0,78,0.00,,,0.00,,2013-03-27 07:02:00,
2013-03-27 02:12:00,29.0,23.0,30.38,WNW,286,1.0,2.0,78,0.00,,,0.00,,2013-03-27 07:12:00,
2013-03-27 02:22:00,29.0,23.0,30.38,WNW,286,1.0,1.0,78,0.00,,,0.00,,2013-03-27 07:22:00,
2013-03-27 02:32:00,29.0,23.0,30.38,WNW,286,0.0,2.0,78,0.00,,,0.00,,2013-03-27 07:32:00,
2013-03-27 02:42:00,29.0,23.0,30.38,WNW,286,0.0,2.0,78,0.00,,,0.00,,2013-03-27 07:42:00,
2013-03-27 02:53:00,29.0,23.0,30.38,WNW,286,1.0,2.0,78,0.00,,,0.00,,2013-03-27 07:53:00,
2013-03-27 03:02:00,29.0,23.0,30.38,WNW,286,0.0,2.0,78,0.00,,,0.00,,2013-03-27 08:02:00,
2013-03-27 03:12:00,29.0,23.0,30.38,WNW,286,0.0,2.0,78,0.00,,,0.00,,2013-03-27 08:12:00,
2013-03-27 03:22:00,29.0,23.0,30.38,WNW,286,0.0,1.0,78,0.00,,,0.00,,2013-03-27 08:22:00,
2013-03-27 03:32:00,29.0,23.0,30.38,WNW,286,1.0,2.0,78,0.00,,,0.00,,2013-03-27 08:32:00,
2013-03-27 03:43:00,29.0,23.0,30.38,WNW,286,1.0,2.0,78,0.00,,,0.00,,2013-03-27 08:43:00,
2013-03-27 03:52:00,29.0,23.0,30.38,West,268,3.0,3.0,77,0.00,,,0.00,,2013-03-27 08:52:00,
2013-03-27 04:01:00,30.0,23.0,30.37,West,265,1.0,3.0,76,0.00,,,0.00,,2013-03-27 09:01:00,
2013-03-27 04:12:00,30.0,23.0,30.37,West,265,1.0,3.0,76,0.00,,,0.00,,2013-03-27 09:12:00,
2013-03-27 04:22:00,30.0,23.0,30.38,WNW,284,3.0,3.0,74,0.00,,,0.00,,2013-03-27 09:22:00,
2013-03-27 04:32:00,30.0,23.0,30.38,WNW,284,3.0,3.0,74,0.00,,,0.00,,2013-03-27 09:32:00,
2013-03-27 04:42:00,30.0,23.0,30.38,WNW,284,3.0,3.0,74,0.00,,,0.00,,2013-03-27 09:42:00,
2013-03-27 04:52:00,30.0,22.0,30.38,West,268,1.0,2.0,73,0.00,,,0.00,,2013-03-27 09:52:00,
2013-03-27 05:02:00,30.0,22.0,30.38,West,279,3.0,3.0,73,0.00,,,0.00,,2013-03-27 10:02:00,
2013-03-27 05:12:00,30.0,22.0,30.38,West,279,3.0,3.0,73,0.00,,,0.00,,2013-03-27 10:12:00,
2013-03-27 05:23:00,30.0,22.0,30.38,WNW,297,1.0,1.0,73,0.00,,,0.00,,2013-03-27 10:23:00,
2013-03-27 05:32:00,30.0,22.0,30.38,WNW,297,1.0,1.0,73,0.00,,,0.00,,2013-03-27 10:32:00,
2013-03-27 05:42:00,30.0,22.0,30.38,WNW,297,1.0,1.0,73,0.00,,,0.00,,2013-03-27 10:42:00,
2013-03-27 05:53:00,30.0,23.0,30.38,WNW,296,3.0,3.0,74,0.00,,,0.00,,2013-03-27 10:53:00,
2013-03-27 06:02:00,30.0,22.0,30.38,WNW,292,0.0,0.0,73,0.00,,,0.00,,2013-03-27 11:02:00,
2013-03-27 06:12:00,30.0,22.0,30.38,WNW,292,0.0,0.0,73,0.00,,,0.00,,2013-03-27 11:12:00,
2013-03-27 06:22:00,30.0,22.0,30.38,WNW,292,0.0,0.0,72,0.00,,,0.00,,2013-03-27 11:22:00,
2013-03-27 06:32:00,29.0,21.0,30.39,WNW,292,0.0,1.0,73,0.00,,,0.00,,2013-03-27 11:32:00,
2013-03-27 06:42:00,29.0,21.0,30.39,WNW,292,0.0,1.0,73,0.00,,,0.00,,2013-03-27 11:42:00,
2013-03-27 06:53:00,28.0,21.0,30.39,WNW,292,0.0,1.0,75,0.00,,,0.00,,2013-03-27 11:53:00,
2013-03-27 07:02:00,28.0,21.0,30.40,WNW,292,1.0,3.0,76,0.00,,,0.00,,2013-03-27 12:02:00,
2013-03-27 07:12:00,28.0,21.0,30.40,WNW,292,1.0,3.0,76,0.00,,,0.00,,2013-03-27 12:12:00,
2013-03-27 07:22:00,28.0,22.0,30.41,West,275,0.0,2.0,78,0.00,,,0.00,,2013-03-27 12:22:00,
2013-03-27 07:32:00,28.0,22.0,30.42,West,275,0.0,0.0,79,0.00,,,0.00,,2013-03-27 12:32:00,
2013-03-27 07:43:00,28.0,22.0,30.42,West,275,0.0,0.0,79,0.00,,,0.00,,2013-03-27 12:43:00,
2013-03-27 07:52:00,28.0,22.0,30.42,West,275,0.0,0.0,79,0.00,,,0.00,,2013-03-27 12:52:00,
2013-03-27 08:02:00,28.0,22.0,30.42,West,275,0.0,0.0,79,0.00,,,0.00,,2013-03-27 13:02:00,
2013-03-27 08:12:00,28.0,22.0,30.42,West,275,0.0,0.0,79,0.00,,,0.00,,2013-03-27 13:12:00,
2013-03-27 08:22:00,30.0,24.0,30.42,West,279,3.0,3.0,77,0.00,,,0.00,,2013-03-27 13:22:00,
2013-03-27 08:32:00,31.0,24.0,30.42,West,261,2.0,2.0,74,0.00,,,0.00,,2013-03-27 13:32:00,
2013-03-27 08:42:00,31.0,24.0,30.42,West,261,2.0,2.0,74,0.00,,,0.00,,2013-03-27 13:42:00,
2013-03-27 08:53:00,33.0,24.0,30.42,WNW,296,3.0,4.0,70,0.00,,,0.00,,2013-03-27 13:53:00,
2013-03-27 09:02:00,34.0,25.0,30.42,WNW,290,3.0,3.0,69,0.00,,,0.00,,2013-03-27 14:02:00,
2013-03-27 09:12:00,34.0,25.0,30.42,WNW,290,3.0,3.0,69,0.00,,,0.00,,2013-03-27 14:12:00,
2013-03-27 09:22:00,35.0,24.0,30.42,NW,304,4.0,5.0,65,0.00,,,0.00,,2013-03-27 14:22:00,
2013-03-27 09:32:00,36.0,25.0,30.43,NW,313,3.0,4.0,65,0.00,,,0.00,,2013-03-27 14:32:00,
2013-03-27 09:42:00,36.0,25.0,30.43,NW,313,3.0,4.0,65,0.00,,,0.00,,2013-03-27 14:42:00,
2013-03-27 09:52:00,37.0,25.0,30.43,WNW,287,2.0,5.0,62,0.00,,,0.00,,2013-03-27 14:52:00,
2013-03-27 10:02:00,37.0,24.0,30.43,NW,307,3.0,5.0,60,0.00,,,0.00,,2013-03-27 15:02:00,
2013-03-27 10:12:00,37.0,24.0,30.43,NW,307,3.0,5.0,60,0.00,,,0.00,,2013-03-27 15:12:00,
2013-03-27 10:22:00,39.0,27.0,30.43,WSW,246,4.0,5.0,61,0.00,,,0.00,,2013-03-27 15:22:00,
2013-03-27 10:33:00,40.0,26.0,30.43,WNW,285,3.0,5.0,56,0.00,,,0.00,,2013-03-27 15:33:00,
2013-03-27 10:42:00,40.0,26.0,30.43,WNW,285,3.0,5.0,56,0.00,,,0.00,,2013-03-27 15:42:00,
2013-03-27 10:52:00,41.0,24.0,30.43,NW,312,0.0,2.0,50,0.00,,,0.00,,2013-03-27 15:52:00,
2013-03-27 11:02:00,42.0,25.0,30.43,NW,317,3.0,4.0,50,0.00,,,0.00,,2013-03-27 16:02:00,
2013-03-27 11:12:00,42.0,25.0,30.43,NW,317,3.0,4.0,50,0.00,,,0.00,,2013-03-27 16:12:00,
2013-03-27 11:22:00,43.0,26.0,30.42,NNW,339,3.0,3.0,51,0.00,,,0.00,,2013-03-27 16:22:00,
2013-03-27 11:32:00,42.0,23.0,30.43,WNW,290,5.0,6.0,47,0.00,,,0.00,,2013-03-27 16:32:00,
2013-03-27 11:42:00,42.0,23.0,30.43,WNW,290,5.0,6.0,47,0.00,,,0.00,,2013-03-27 16:42:00,
2013-03-27 11:52:00,42.0,25.0,30.43,WSW,257,0.0,3.0,50,0.00,,,0.00,,2013-03-27 16:52:00,
2013-03-27 12:02:00,43.0,26.0,30.43,West,281,9.0,9.0,50,0.00,,,0.00,,2013-03-27 17:02:00,
2013-03-27 12:12:00,43.0,26.0,30.43,West,281,9.0,9.0,50,0.00,,,0.00,,2013-03-27 17:12:00,
2013-03-27 12:22:00,42.0,25.0,30.43,West,279,5.0,6.0,50,0.00,,,0.00,,2013-03-27 17:22:00,
2013-03-27 12:32:00,43.0,27.0,30.43,West,272,4.0,6.0,52,0.00,,,0.00,,2013-03-27 17:32:00,
2013-03-27 12:44:00,43.0,27.0,30.43,West,272,4.0,6.0,52,0.00,,,0.00,,2013-03-27 17:44:00,
2013-03-27 12:52:00,43.0,27.0,30.43,West,272,4.0,6.0,52,0.00,,,0.00,,2013-03-27 17:52:00,
2013-03-27 13:02:00,44.0,28.0,30.43,WSW,248,2.0,3.0,52,0.00,,,0.00,,2013-03-27 18:02:00,
2013-03-27 13:12:00,44.0,28.0,30.43,WSW,248,2.0,3.0,52,0.00,,,0.00,,2013-03-27 18:12:00,
2013-03-27 13:22:00,44.0,26.0,30.42,WNW,291,6.0,6.0,48,0.00,,,0.00,,2013-03-27 18:22:00,
2013-03-27 13:32:00,44.0,26.0,30.42,NNW,341,3.0,3.0,49,0.00,,,0.00,,2013-03-27 18:32:00,
2013-03-27 13:42:00,44.0,26.0,30.42,NNW,341,3.0,3.0,49,0.00,,,0.00,,2013-03-27 18:42:00,
2013-03-27 13:53:00,44.0,26.0,30.41,NNW,338,2.0,2.0,48,0.00,,,0.00,,2013-03-27 18:53:00,
2013-03-27 14:02:00,44.0,26.0,30.41,NNW,334,3.0,3.0,48,0.00,,,0.00,,2013-03-27 19:02:00,
2013-03-27 14:12:00,44.0,26.0,30.41,NNW,334,3.0,3.0,48,0.00,,,0.00,,2013-03-27 19:12:00,
2013-03-27 14:22:00,44.0,24.0,30.40,West,267,3.0,3.0,45,0.00,,,0.00,,2013-03-27 19:22:00,
2013-03-27 14:32:00,45.0,25.0,30.39,NW,305,2.0,2.0,46,0.00,,,0.00,,2013-03-27 19:32:00,
2013-03-27 14:42:00,45.0,25.0,30.39,NW,305,2.0,2.0,46,0.00,,,0.00,,2013-03-27 19:42:00,
2013-03-27 14:52:00,47.0,26.0,30.39,NNW,327,5.0,5.0,44,0.00,,,0.00,,2013-03-27 19:52:00,
2013-03-27 15:02:00,46.0,25.0,30.38,West,264,3.0,12.0,44,0.00,,,0.00,,2013-03-27 20:02:00,
2013-03-27 15:12:00,46.0,25.0,30.38,West,264,3.0,12.0,44,0.00,,,0.00,,2013-03-27 20:12:00,
2013-03-27 15:22:00,46.0,27.0,30.38,South,186,0.0,3.0,47,0.00,,,0.00,,2013-03-27 20:22:00,
2013-03-27 15:32:00,46.0,25.0,30.37,NE,51,2.0,3.0,44,0.00,,,0.00,,2013-03-27 20:32:00,
2013-03-27 15:42:00,46.0,25.0,30.37,NE,51,2.0,3.0,44,0.00,,,0.00,,2013-03-27 20:42:00,
2013-03-27 15:52:00,47.0,27.0,30.37,West,277,3.0,4.0,46,0.00,,,0.00,,2013-03-27 20:52:00,
2013-03-27 16:02:00,46.0,26.0,30.36,West,265,4.0,6.0,45,0.00,,,0.00,,2013-03-27 21:02:00,
2013-03-27 16:12:00,46.0,26.0,30.36,West,265,4.0,6.0,45,0.00,,,0.00,,2013-03-27 21:12:00,
2013-03-27 16:22:00,46.0,26.0,30.36,West,271,3.0,3.0,46,0.00,,,0.00,,2013-03-27 21:22:00,
2013-03-27 16:32:00,46.0,26.0,30.36,West,279,3.0,4.0,45,0.00,,,0.00,,2013-03-27 21:32:00,
2013-03-27 16:43:00,46.0,26.0,30.36,West,279,3.0,4.0,45,0.00,,,0.00,,2013-03-27 21:43:00,
2013-03-27 16:52:00,46.0,27.0,30.36,West,271,3.0,4.0,47,0.00,,,0.00,,2013-03-27 21:52:00,
2013-03-27 17:03:00,46.0,25.0,30.36,North,5,2.0,3.0,44,0.00,,,0.00,,2013-03-27 22:03:00,
2013-03-27 17:12:00,46.0,25.0,30.36,North,5,2.0,3.0,44,0.00,,,0.00,,2013-03-27 22:12:00,
2013-03-27 17:23:00,47.0,26.0,30.35,NNW,332,3.0,5.0,44,0.00,,,0.00,,2013-03-27 22:23:00,
2013-03-27 17:33:00,47.0,26.0,30.35,NE,36,1.0,3.0,44,0.00,,,0.00,,2013-03-27 22:33:00,
2013-03-27 17:42:00,47.0,26.0,30.35,NE,36,1.0,3.0,44,0.00,,,0.00,,2013-03-27 22:42:00,
2013-03-27 17:52:00,47.0,25.0,30.35,WNW,294,0.0,3.0,42,0.00,,,0.00,,2013-03-27 22:52:00,
2013-03-27 18:02:00,47.0,26.0,30.35,NW,317,2.0,5.0,44,0.00,,,0.00,,2013-03-27 23:02:00,
2013-03-27 18:12:00,47.0,26.0,30.35,NW,317,2.0,5.0,44,0.00,,,0.00,,2013-03-27 23:12:00,
2013-03-27 18:22:00,46.0,26.0,30.35,NNW,333,3.0,4.0,46,0.00,,,0.00,,2013-03-27 23:22:00,
2013-03-27 18:32:00,46.0,26.0,30.35,NW,306,1.0,2.0,46,0.00,,,0.00,,2013-03-27 23:32:00,
2013-03-27 18:42:00,46.0,26.0,30.35,NW,306,1.0,2.0,46,0.00,,,0.00,,2013-03-27 23:42:00,
2013-03-27 18:52:00,46.0,26.0,30.35,NW,311,1.0,2.0,46,0.00,,,0.00,,2013-03-27 23:52:00,
2013-03-27 19:02:00,46.0,27.0,30.35,NW,311,0.0,1.0,47,0.00,,,0.00,,2013-03-28 00:02:00,
2013-03-27 19:12:00,46.0,27.0,30.35,NW,311,0.0,1.0,47,0.00,,,0.00,,2013-03-28 00:12:00,
2013-03-27 19:22:00,45.0,27.0,30.35,NW,311,0.0,0.0,49,0.00,,,0.00,,2013-03-28 00:22:00,
2013-03-27 19:32:00,44.0,26.0,30.35,NW,311,0.0,0.0,49,0.00,,,0.00,,2013-03-28 00:32:00,
2013-03-27 19:42:00,44.0,26.0,30.35,NW,311,0.0,0.0,49,0.00,,,0.00,,2013-03-28 00:42:00,
2013-03-27 19:52:00,43.0,27.0,30.35,NW,311,0.0,0.0,52,0.00,,,0.00,,2013-03-28 00:52:00,
2013-03-27 20:02:00,42.0,26.0,30.35,NW,311,0.0,0.0,53,0.00,,,0.00,,2013-03-28 01:02:00,
2013-03-27 20:12:00,42.0,26.0,30.35,NW,311,0.0,0.0,53,0.00,,,0.00,,2013-03-28 01:12:00,
2013-03-27 20:22:00,41.0,27.0,30.36,NW,311,0.0,0.0,56,0.00,,,0.00,,2013-03-28 01:22:00,
2013-03-27 20:32:00,40.0,26.0,30.36,NW,311,0.0,0.0,57,0.00,,,0.00,,2013-03-28 01:32:00,
2013-03-27 20:42:00,40.0,26.0,30.36,NW,311,0.0,0.0,57,0.00,,,0.00,,2013-03-28 01:42:00,
2013-03-27 20:53:00,39.0,26.0,30.36,NW,311,0.0,0.0,60,0.00,,,0.00,,2013-03-28 01:53:00,
2013-03-27 21:02:00,38.0,26.0,30.36,NW,311,0.0,0.0,61,0.00,,,0.00,,2013-03-28 02:02:00,
2013-03-27 21:12:00,38.0,26.0,30.36,NW,311,0.0,0.0,61,0.00,,,0.00,,2013-03-28 02:12:00,
2013-03-27 21:22:00,37.0,26.0,30.36,NW,311,0.0,0.0,63,0.00,,,0.00,,2013-03-28 02:22:00,
2013-03-27 21:32:00,37.0,26.0,30.36,NW,311,0.0,0.0,64,0.00,,,0.00,,2013-03-28 02:32:00,
2013-03-27 21:42:00,37.0,26.0,30.36,NW,311,0.0,0.0,64,0.00,,,0.00,,2013-03-28 02:42:00,
2013-03-27 21:52:00,37.0,26.0,30.36,NW,311,0.0,0.0,64,0.00,,,0.00,,2013-03-28 02:52:00,
2013-03-27 22:02:00,36.0,26.0,30.37,NW,311,0.0,0.0,68,0.00,,,0.00,,2013-03-28 03:02:00,
2013-03-27 22:12:00,36.0,26.0,30.37,NW,311,0.0,0.0,68,0.00,,,0.00,,2013-03-28 03:12:00,
2013-03-27 22:22:00,35.0,26.0,30.37,NW,311,0.0,0.0,69,0.00,,,0.00,,2013-03-28 03:22:00,
2013-03-27 22:33:00,35.0,26.0,30.36,NW,311,0.0,0.0,69,0.00,,,0.00,,2013-03-28 03:33:00,
2013-03-27 22:42:00,35.0,26.0,30.36,NW,311,0.0,0.0,69,0.00,,,0.00,,2013-03-28 03:42:00,
2013-03-27 22:53:00,34.0,26.0,30.37,NW,311,0.0,1.0,71,0.00,,,0.00,,2013-03-28 03:53:00,
2013-03-27 23:02:00,34.0,26.0,30.37,NW,311,0.0,1.0,71,0.00,,,0.00,,2013-03-28 04:02:00,
2013-03-27 23:12:00,34.0,26.0,30.37,NW,311,0.0,1.0,71,0.00,,,0.00,,2013-03-28 04:12:00,
2013-03-27 23:22:00,34.0,26.0,30.37,NW,311,0.0,0.0,71,0.00,,,0.00,,2013-03-28 04:22:00,
2013-03-27 23:32:00,34.0,25.0,30.37,NW,311,0.0,0.0,70,0.00,,,0.00,,2013-03-28 04:32:00,
2013-03-27 23:42:00,34.0,25.0,30.37,NW,311,0.0,0.0,70,0.00,,,0.00,,2013-03-28 04:42:00,
2013-03-27 23:52:00,34.0,26.0,30.37,NW,311,0.0,0.0,72,0.00,,,0.00,,2013-03-28 04:52:00,